San Jose, Costa Rica

9:02 PM CST on November 21, 2017 (GMT -0600)
Juan Santamaria International

Weather History for MROC - March, 2013

Change the Weather History Date:

Thursday, March 21, 2013

  Actual Average Record
Temperature  
Mean Temperature 76 °F -  
Max Temperature 88 °F 83 °F 91 °F (1998)
Min Temperature 64 °F 65 °F 61 °F (2015)
Cooling Degree Days 11    
Growing Degree Days 26 (Base 50)    
Moisture  
Dew Point 64 °F    
Average Humidity 73    
Maximum Humidity 100    
Minimum Humidity 33    
Precipitation  
Precipitation 0.08 in 0.08 in - ()
Sea Level Pressure  
Sea Level Pressure 29.94 in    
Wind  
Wind Speed 5 mph ()    
Max Wind Speed 18 mph    
Max Gust Speed -    
Visibility 6.0 miles    
Events Rain , Thunderstorm    
Averages and records for this station are not official NWS values.
T = Trace of Precipitation, MM = Missing Value Source: Averaged Metar Reports

Daily Weather History Graph

Daily Weather History Graph

Search for Another Location

Airport or City:

Trip Planner

Search our weather history database for the weather conditions in past years. The results will help you decide how hot, cold, wet, or windy it might be!

Date:

Astronomy

Mar. 21, 2013 Rise Set
Actual Time 5:40 AM CST 5:47 PM CST
Civil Twilight 5:19 AM CST 6:08 PM CST
Nautical Twilight 4:54 AM CST 6:33 PM CST
Astronomical Twilight 4:30 AM CST 6:57 PM CST
Moon 1:07 PM CST (3/21) 1:08 AM CST (3/21)
Length of Visible Light 12h 49m
Length of Day
12h 07m
Waxing Gibbous, 69% of the Moon is Illuminated
Mar 21
Waxing Gibbous
Mar 27
Full
Apr 2
Last Quarter
Apr 10
New
Apr 18
First Quarter

Hourly Weather History & Observations

Time (CST) Temp. Heat Index Dew Point Humidity Pressure Visibility Wind Dir Wind Speed Gust Speed Precip Events Conditions
12:00 AM 70 °F - 68 °F 91% 29.81 in 4 mi Calm Calm - -   Overcast
12:00 AM 69.8 °F - 68.0 °F 94% 30.01 in 3.7 mi Calm Calm - N/A   Mostly Cloudy
1:00 AM 69.8 °F - 68.0 °F 94% 30.00 in 5.0 mi South 2.3 mph - N/A   Mostly Cloudy
2:00 AM 68.0 °F - 68.0 °F 100% 29.98 in 5.0 mi SSE 2.3 mph - N/A   Mostly Cloudy
3:00 AM 68 °F - 63 °F 78% 29.83 in 6 mi East 3.5 mph - -   Overcast
3:00 AM 68.0 °F - 62.6 °F 83% 29.97 in 6.2 mi East 3.5 mph - N/A   Mostly Cloudy
4:00 AM 66.2 °F - 60.8 °F 83% 29.97 in 6.2 mi ENE 4.6 mph - N/A   Mostly Cloudy
5:00 AM 66.2 °F - 59.0 °F 78% 29.98 in 6.2 mi East 4.6 mph - N/A   Scattered Clouds
6:00 AM 66 °F - 59 °F 72% 29.86 in 6 mi ENE 6.9 mph - -   Haze
6:00 AM 66.2 °F - 59.0 °F 78% 29.99 in - ENE 6.9 mph - N/A   Clear
7:00 AM 69.8 °F - 60.8 °F 73% 30.02 in - East 6.9 mph - N/A   Clear
8:00 AM 77.0 °F - 60.8 °F 57% 30.03 in - ESE 5.8 mph - N/A   Clear
9:00 AM 81 °F - 61 °F 40% 29.80 in 12 mi SSE 2.3 mph - -   Haze
9:00 AM 80.6 °F 81.5 °F 60.8 °F 51% 30.03 in - SSE 2.3 mph - N/A   Clear
10:00 AM 84.2 °F 83.0 °F 55.4 °F 37% 30.01 in - SSW 4.6 mph - N/A   Clear
11:00 AM 86.0 °F 85.4 °F 59.0 °F 40% 29.97 in 6.2 mi West 11.5 mph - N/A   Partly Cloudy
12:00 PM 88 °F - 63 °F 33% 29.73 in 12 mi WSW 15.0 mph - -   Scattered Clouds
12:00 PM 87.8 °F 88.5 °F 62.6 °F 43% 29.95 in 6.2 mi WSW 15.0 mph - N/A   Partly Cloudy
1:00 PM 86.0 °F 88.2 °F 66.2 °F 51% 29.93 in 6.2 mi WSW 15.0 mph - N/A   Partly Cloudy
2:00 PM 86.0 °F 89.4 °F 68.0 °F 55% 29.91 in 6.2 mi WSW 15.0 mph - N/A   Partly Cloudy
3:00 PM 81 °F - 70 °F 61% 29.74 in 6 mi SW 18.4 mph - -   Mostly Cloudy
3:00 PM 80.6 °F 83.9 °F 69.8 °F 70% 29.91 in 6.2 mi SW 18.4 mph - N/A   Scattered Clouds
3:25 PM 78.8 °F - 69.8 °F 74% 29.92 in 6.2 mi WSW 12.7 mph - N/A Thunderstorm Mostly Cloudy
4:00 PM 78.8 °F - 69.8 °F 74% 29.92 in 6.2 mi SW 11.5 mph - N/A Thunderstorm Mostly Cloudy
5:00 PM 73.4 °F - 64.4 °F 73% 29.95 in 6.2 mi ESE 8.1 mph - N/A Rain Light Rain
5:10 PM 69.8 °F - 64.4 °F 83% 29.95 in 1.2 mi ESE 9.2 mph - N/A Rain Rain Showers
5:35 PM 64.4 °F - 60.8 °F 88% 29.97 in 3.1 mi ESE 5.8 mph - N/A Rain Light Rain
6:00 PM - - - % 29.84 in 6 mi SE 6.9 mph - - Rain Light Drizzle
6:00 PM 64.4 °F - 60.8 °F 88% 29.98 in 6.2 mi SE 6.9 mph - N/A   Light Drizzle
7:00 PM 69.8 °F - 66.2 °F 88% 29.98 in 6.2 mi ENE 3.5 mph - N/A   Mostly Cloudy
8:00 PM 69.8 °F - 66.2 °F 88% 30.02 in 6.2 mi NNW 4.6 mph - N/A   Scattered Clouds
9:00 PM 68.0 °F - 66.2 °F 94% 30.04 in 6.2 mi East 2.3 mph - N/A   Scattered Clouds
10:00 PM 68.0 °F - 66.2 °F 94% 30.05 in 6.2 mi East 4.6 mph - N/A   Scattered Clouds
11:00 PM 66.2 °F - 64.4 °F 94% 30.04 in 6.2 mi East 3.5 mph - N/A   Scattered Clouds